TimeEST,TemperatureF,Dew PointF,Humidity,Sea Level PressureIn,VisibilityMPH,Wind Direction,Wind SpeedMPH,Gust SpeedMPH,PrecipitationIn,Events,Conditions,WindDirDegrees,DateUTC
12:53 AM,59.0,57.0,93,30.09,10.0,SE,3.5,-,N/A,,Scattered Clouds,130,2014-03-03 05:53:00
1:53 AM,62.1,60.1,93,30.09,10.0,Calm,Calm,-,N/A,,Mostly Cloudy,0,2014-03-03 06:53:00
2:53 AM,61.0,59.0,93,30.07,10.0,Calm,Calm,-,N/A,,Scattered Clouds,0,2014-03-03 07:53:00
3:53 AM,59.0,57.9,96,30.06,10.0,ESE,4.6,-,N/A,,Clear,120,2014-03-03 08:53:00
4:53 AM,60.1,57.9,93,30.04,10.0,ESE,5.8,-,N/A,,Clear,120,2014-03-03 09:53:00
5:53 AM,57.9,57.0,97,30.06,10.0,NE,3.5,-,N/A,,Clear,50,2014-03-03 10:53:00
6:14 AM,57.9,57.0,97,30.07,1.8,Calm,Calm,-,N/A,,Clear,0,2014-03-03 11:14:00
6:27 AM,55.9,55.9,100,30.07,3.0,NNE,3.5,-,N/A,,Clear,30,2014-03-03 11:27:00
6:53 AM,55.9,55.9,100,30.09,10.0,NNE,4.6,-,N/A,,Clear,30,2014-03-03 11:53:00
7:00 AM,55.9,55.0,97,30.09,1.8,NE,3.5,-,N/A,,Clear,40,2014-03-03 12:00:00
7:07 AM,55.0,54.0,96,30.09,10.0,NNE,3.5,-,N/A,,Clear,30,2014-03-03 12:07:00
7:53 AM,63.0,60.1,90,30.10,10.0,East,3.5,-,N/A,,Clear,80,2014-03-03 12:53:00
8:53 AM,70.0,62.1,76,30.10,10.0,SE,6.9,-,N/A,,Clear,130,2014-03-03 13:53:00
9:53 AM,75.9,62.1,62,30.12,10.0,South,5.8,-,N/A,,Clear,180,2014-03-03 14:53:00
10:53 AM,77.0,60.1,56,30.12,10.0,West,8.1,-,N/A,,Partly Cloudy,260,2014-03-03 15:53:00
11:53 AM,79.0,62.1,56,30.11,10.0,West,12.7,-,N/A,,Clear,260,2014-03-03 16:53:00
12:53 PM,80.1,62.1,54,30.08,10.0,SW,13.8,-,N/A,,Clear,230,2014-03-03 17:53:00
1:53 PM,80.1,62.1,54,30.06,10.0,WSW,15.0,-,N/A,,Clear,250,2014-03-03 18:53:00
2:53 PM,79.0,62.1,56,30.04,10.0,WSW,12.7,-,N/A,,Clear,240,2014-03-03 19:53:00
3:53 PM,78.1,61.0,56,30.03,10.0,WSW,15.0,-,N/A,,Clear,250,2014-03-03 20:53:00
4:53 PM,77.0,62.1,60,30.04,10.0,WSW,9.2,-,N/A,,Clear,250,2014-03-03 21:53:00
5:53 PM,75.0,61.0,62,30.05,10.0,WSW,9.2,-,N/A,,Clear,240,2014-03-03 22:53:00